Regional Weather Roundup
Issued by NWS

Home | Current Version | Previous Version | Graphics & Text | Print | Product List | Glossary On
Versions: 1 2 3 4 5 6 7 8 9 10 11 12 13 14 15 16 17 18 19 20 21 22 23 24 25 26 27 28 29 30 31 32 33 34 35 36 37 38 39 40 41 42 43 44 45 46 47 48 49 50
000
ASUS43 KOAX 210302
RWRNE

WEATHER ROUNDUP FOR NEBRASKA
NATIONAL WEATHER SERVICE OMAHA NE
1000 PM CDT WED SEP 20 2017

NOTES: SATELLITE DATA IS BEING USED TO AUGMENT CLOUD COVER ABOVE
       12000 FEET.
       "FAIR" INDICATES FEW OR NO CLOUDS BELOW 12,000 FEET WITH NO
       SIGNIFICANT WEATHER AND/OR OBSTRUCTIONS TO VISIBILITY.


NEZ001>004-019>022-054>056-210400-
NEBRASKA PANHANDLE

CITY           SKY/WX    TMP DP  RH WIND       PRES   REMARKS
SCOTTSBLUFF    CLEAR     62  35  36 E15       29.83R
ALLIANCE       CLEAR     54  37  52 SE10      29.85S
CHADRON        CLEAR     66  32  28 S16       29.79R
KIMBALL        CLEAR     62  32  32 SE14      29.89R
SIDNEY         CLEAR     62  31  31 S17       29.88R
$$

NEZ057>060-069>072-079>082-210400-
SOUTHWEST NEBRASKA

CITY           SKY/WX    TMP DP  RH WIND       PRES   REMARKS
NORTH PLATTE   CLEAR     54  44  69 E9        29.90R
IMPERIAL       CLEAR     55  35  47 SE8       29.88S
LEXINGTON      CLEAR     58  45  61 CALM      29.90S
MCCOOK         CLEAR     60  39  45 SE8       29.89S
OGALLALA       CLEAR     63  34  34 SE6       29.88S
$$

NEZ005>010-023>029-035>040-094-210400-
NORTH CENTRAL NEBRASKA

CITY           SKY/WX    TMP DP  RH WIND       PRES   REMARKS
VALENTINE      CLEAR     63  37  38 S12       29.86R
AINSWORTH      CLEAR     56  43  61 S8        29.89R
BROKEN BOW     CLEAR     52  42  69 CALM      29.91R
O`NEILL        CLEAR     61  48  62 SE8       29.90S
ORD            CLEAR     53  47  79 CALM      29.89S
$$

NEZ041-046>049-061>064-073>077-083>087-210400-
SOUTH CENTRAL NEBRASKA

CITY           SKY/WX    TMP DP  RH WIND       PRES   REMARKS
GRAND ISLAND   CLEAR     59  51  75 E5        29.91R
AURORA         CLEAR     58  50  73 E7        29.90S
HASTINGS       CLEAR     61  47  59 E6        29.91S
HEBRON         CLEAR     65  54  67 CALM      29.88S
HOLDREGE       CLEAR     56  42  58 E6        29.91R
KEARNEY        CLEAR     58  46  64 E5        29.92R
YORK           CLEAR     61  50  67 E8        29.90S
$$

NEZ011>018-030>034-042>045-210400-
NORTHEAST NEBRASKA

CITY           SKY/WX    TMP DP  RH WIND       PRES   REMARKS
NORFOLK        CLEAR     57  50  77 SE6       29.91R
ALBION         CLEAR     55  53  91 CALM      29.92R
BLAIR          HAZE      65  53  65 NE7       29.90R VSB 3/4
COLUMBUS       CLEAR     54  51  90 NE3       29.91R
FREMONT        CLEAR     60  53  78 CALM      29.90R
TEKAMAH        CLEAR     56  52  86 NW7       29.89R
WAYNE          CLEAR     53  51  91 CALM      29.91S
$$

NEZ050>053-065>068-078-088>093-210400-
SOUTHEAST NEBRASKA

CITY           SKY/WX    TMP DP  RH WIND       PRES   REMARKS
LINCOLN        CLEAR     63  52  67 N5        29.89S
OMAHA EPPLEY   CLEAR     61  54  77 N7        29.89R
BEATRICE       CLEAR     66  56  70 NE7       29.88R
FALLS CITY     CLEAR     73  63  70 N6        29.84R
NEBRASKA CITY  CLEAR     68  58  69 N5        29.88R
PLATTSMOUTH    CLEAR     67  55  64 N5        29.89R
$$

NEZ044-045-051>053-067-210400-
OMAHA AREA

CITY           SKY/WX    TMP DP  RH WIND       PRES   REMARKS
OMAHA EPPLEY   CLEAR     61  54  77 N7        29.89R
BLAIR          HAZE      65  53  65 NE7       29.90R VSB 3/4
FREMONT        CLEAR     60  53  78 CALM      29.90R
MILLARD        CLEAR     67  53  60 CALM      29.89R
OFFUTT AFB     CLEAR     63  53  69 NE5       29.87R
PLATTSMOUTH    CLEAR     67  55  64 N5        29.89R
WAHOO          FAIR      57  54  91 N3        29.90R
$$




USA.gov is the U.S. government's official web portal to all federal, state and local government web resources and services.